| time (UTC) | temp F | wind direction | speed MPH | gust MPH | rain 1hr in | rain 24hr in | rain mn in | humidity % | barometer mb |
| 20260831233314 | 64 | 340 | 3.0 | 0.0 | 0.00 | 0.00 | 0.00 | 64 | 1016.0 |
| 20260831231815 | 66 | 30 | 5.0 | 0.0 | 0.00 | 0.00 | 0.00 | 60 | 1016.0 |
| 20260831230314 | 66 | 30 | 5.0 | 0.0 | 0.00 | 0.00 | 0.00 | 60 | 1016.0 |
| 20260831224813 | 66 | 60 | 3.0 | 0.0 | 0.00 | 0.00 | 0.00 | 60 | 1016.0 |
| 20260831223314 | 66 | 60 | 3.0 | 0.0 | 0.00 | 0.00 | 0.00 | 60 | 1016.0 |
| 20260831221815 | 70 | 80 | 3.0 | 0.0 | 0.00 | 0.00 | 0.00 | 50 | 1017.0 |
| 20260831220314 | 70 | 80 | 3.0 | 0.0 | 0.00 | 0.00 | 0.00 | 50 | 1017.0 |
| 20260831214814 | 68 | 70 | 3.0 | 0.0 | 0.00 | 0.00 | 0.00 | 53 | 1017.0 |
| 20260831213314 | 68 | 70 | 3.0 | 0.0 | 0.00 | 0.00 | 0.00 | 53 | 1017.0 |
| 20260831211813 | 70 | 70 | 5.0 | 0.0 | 0.00 | 0.00 | 0.00 | 50 | 1017.0 |
| 20260831210314 | 70 | 70 | 5.0 | 0.0 | 0.00 | 0.00 | 0.00 | 50 | 1017.0 |
| 20260831204815 | 73 | 90 | 7.0 | 0.0 | 0.00 | 0.00 | 0.00 | 44 | 1016.0 |
| 20260831203315 | 73 | 90 | 7.0 | 0.0 | 0.00 | 0.00 | 0.00 | 44 | 1016.0 |
| 20260831201814 | 77 | 110 | 8.0 | 0.0 | 0.00 | 0.00 | 0.00 | 36 | 1016.0 |
| 20260831200313 | 77 | 110 | 8.0 | 0.0 | 0.00 | 0.00 | 0.00 | 36 | 1016.0 |
| 20260831194814 | 77 | 110 | 8.0 | 0.0 | 0.00 | 0.00 | 0.00 | 36 | 1016.0 |
| 20260831193314 | 77 | 110 | 8.0 | 0.0 | 0.00 | 0.00 | 0.00 | 36 | 1016.0 |
| 20260831191815 | 79 | 110 | 9.0 | 0.0 | 0.00 | 0.00 | 0.00 | 37 | 1016.0 |
| 20260831190316 | 79 | 110 | 9.0 | 0.0 | 0.00 | 0.00 | 0.00 | 37 | 1016.0 |
| 20260831184815 | 79 | 110 | 9.0 | 0.0 | 0.00 | 0.00 | 0.00 | 39 | 1016.0 |
| 20260831183314 | 79 | 110 | 9.0 | 0.0 | 0.00 | 0.00 | 0.00 | 39 | 1016.0 |
| 20260831181815 | 75 | 90 | 5.0 | 0.0 | 0.00 | 0.00 | 0.00 | 47 | 1016.0 |
| 20260831180314 | 75 | 90 | 5.0 | 0.0 | 0.00 | 0.00 | 0.00 | 47 | 1016.0 |
| 20260831174815 | 79 | 50 | 3.0 | 0.0 | 0.00 | 0.00 | 0.00 | 42 | 1016.0 |
| 20260831173314 | 79 | 50 | 3.0 | 0.0 | 0.00 | 0.00 | 0.00 | 42 | 1016.0 |
| 20260831171814 | 82 | 110 | 5.0 | 0.0 | 0.00 | 0.00 | 0.00 | 35 | 1016.0 |
| 20260831170316 | 82 | 110 | 5.0 | 0.0 | 0.00 | 0.00 | 0.00 | 35 | 1016.0 |
| 20260831164814 | 86 | 110 | 7.0 | 0.0 | 0.00 | 0.00 | 0.00 | 29 | 1016.0 |
| 20260831163314 | 86 | 110 | 7.0 | 0.0 | 0.00 | 0.00 | 0.00 | 29 | 1016.0 |
| 20260831161814 | 88 | 110 | 6.0 | 0.0 | 0.00 | 0.00 | 0.00 | 27 | 1016.0 |
| 20260831160314 | 88 | 110 | 6.0 | 0.0 | 0.00 | 0.00 | 0.00 | 27 | 1016.0 |
| 20260831154814 | 88 | 110 | 6.0 | 0.0 | 0.00 | 0.00 | 0.00 | 29 | 1016.0 |
| 20260831153314 | 88 | 110 | 6.0 | 0.0 | 0.00 | 0.00 | 0.00 | 29 | 1016.0 |
| 20260831151814 | 90 | 120 | 8.0 | 0.0 | 0.00 | 0.00 | 0.00 | 27 | 1016.0 |
| 20260831150314 | 90 | 120 | 8.0 | 0.0 | 0.00 | 0.00 | 0.00 | 27 | 1016.0 |
| 20260831144814 | 90 | 100 | 7.0 | 0.0 | 0.00 | 0.00 | 0.00 | 27 | 1016.0 |
| 20260831143314 | 90 | 100 | 7.0 | 0.0 | 0.00 | 0.00 | 0.00 | 27 | 1016.0 |
| 20260831141814 | 90 | 110 | 7.0 | 0.0 | 0.00 | 0.00 | 0.00 | 27 | 1016.0 |
| 20260831140322 | 90 | 110 | 7.0 | 0.0 | 0.00 | 0.00 | 0.00 | 27 | 1016.0 |
| 20260831134815 | 91 | 110 | 9.0 | 0.0 | 0.00 | 0.00 | 0.00 | 28 | 1016.0 |
| 20260831133315 | 91 | 110 | 9.0 | 0.0 | 0.00 | 0.00 | 0.00 | 28 | 1016.0 |
| 20260831131814 | 90 | 70 | 7.0 | 0.0 | 0.00 | 0.00 | 0.00 | 29 | 1016.0 |
| 20260831130315 | 90 | 70 | 7.0 | 0.0 | 0.00 | 0.00 | 0.00 | 29 | 1016.0 |
| 20260831124831 | 88 | 6.0 | 0.0 | 0.00 | 0.00 | 0.00 | 31 | 1016.0 | |
| 20260831123314 | 88 | 6.0 | 0.0 | 0.00 | 0.00 | 0.00 | 31 | 1016.0 | |
| 20260831121815 | 90 | 110 | 7.0 | 0.0 | 0.00 | 0.00 | 0.00 | 31 | 1017.0 |
| 20260831120314 | 90 | 110 | 7.0 | 0.0 | 0.00 | 0.00 | 0.00 | 31 | 1017.0 |
| 20260831114814 | 86 | 60 | 7.0 | 0.0 | 0.00 | 0.00 | 0.00 | 35 | 1017.0 |
| 20260831113314 | 86 | 60 | 7.0 | 0.0 | 0.00 | 0.00 | 0.00 | 35 | 1017.0 |
| 20260831111834 | 88 | 70 | 9.0 | 0.0 | 0.00 | 0.00 | 0.00 | 35 | 1017.0 |
| 20260831110314 | 88 | 70 | 9.0 | 0.0 | 0.00 | 0.00 | 0.00 | 35 | 1017.0 |
| 20260831104815 | 86 | 80 | 7.0 | 0.0 | 0.00 | 0.00 | 0.00 | 38 | 1017.0 |
| 20260831103314 | 86 | 80 | 7.0 | 0.0 | 0.00 | 0.00 | 0.00 | 38 | 1017.0 |
| 20260831101814 | 86 | 90 | 7.0 | 20.0 | 0.00 | 0.00 | 0.00 | 35 | 1018.0 |
| 20260831100314 | 86 | 90 | 7.0 | 20.0 | 0.00 | 0.00 | 0.00 | 35 | 1018.0 |
| 20260831094814 | 84 | 80 | 6.0 | 0.0 | 0.00 | 0.00 | 0.00 | 35 | 1018.0 |
| 20260831093429 | 84 | 80 | 6.0 | 0.0 | 0.00 | 0.00 | 0.00 | 35 | 1018.0 |
| 20260831091814 | 84 | 100 | 8.0 | 0.0 | 0.00 | 0.00 | 0.00 | 33 | 1018.0 |
| 20260831090314 | 84 | 100 | 8.0 | 0.0 | 0.00 | 0.00 | 0.00 | 33 | 1018.0 |
| 20260831084814 | 82 | 60 | 8.0 | 0.0 | 0.00 | 0.00 | 0.00 | 37 | 1018.0 |
| 20260831083314 | 82 | 60 | 8.0 | 0.0 | 0.00 | 0.00 | 0.00 | 37 | 1018.0 |
| 20260831081929 | 82 | 90 | 8.0 | 0.0 | 0.00 | 0.00 | 0.00 | 40 | 1018.0 |
| 20260831080314 | 82 | 90 | 8.0 | 0.0 | 0.00 | 0.00 | 0.00 | 40 | 1018.0 |
| 20260831074830 | 79 | 60 | 7.0 | 0.0 | 0.00 | 0.00 | 0.00 | 45 | 1018.0 |
| 20260831073314 | 79 | 60 | 7.0 | 0.0 | 0.00 | 0.00 | 0.00 | 45 | 1018.0 |
| 20260831071843 | 77 | 50 | 6.0 | 0.0 | 0.00 | 0.00 | 0.00 | 51 | 1018.0 |
| 20260831070315 | 77 | 50 | 6.0 | 0.0 | 0.00 | 0.00 | 0.00 | 51 | 1018.0 |
| 20260831064814 | 73 | 70 | 5.0 | 0.0 | 0.00 | 0.00 | 0.00 | 57 | 1018.0 |
| 20260831063314 | 73 | 70 | 5.0 | 0.0 | 0.00 | 0.00 | 0.00 | 57 | 1018.0 |
| 20260831061815 | 70 | 50 | 5.0 | 0.0 | 0.00 | 0.00 | 0.00 | 64 | 1018.0 |
| 20260831060314 | 70 | 50 | 5.0 | 0.0 | 0.00 | 0.00 | 0.00 | 64 | 1018.0 |
| 20260831054815 | 68 | 70 | 6.0 | 0.0 | 0.00 | 0.00 | 0.00 | 69 | 1018.0 |
| 20260831053314 | 68 | 70 | 6.0 | 0.0 | 0.00 | 0.00 | 0.00 | 69 | 1018.0 |
| 20260831051814 | 66 | 60 | 6.0 | 0.0 | 0.00 | 0.00 | 0.00 | 78 | 1018.0 |
| 20260831050314 | 66 | 60 | 6.0 | 0.0 | 0.00 | 0.00 | 0.00 | 78 | 1018.0 |
| 20260831044816 | 63 | 80 | 3.0 | 0.0 | 0.00 | 0.00 | 0.00 | 88 | 1018.0 |
| 20260831043318 | 63 | 80 | 3.0 | 0.0 | 0.00 | 0.00 | 0.00 | 88 | 1018.0 |
| 20260831041814 | 63 | 80 | 3.0 | 0.0 | 0.00 | 0.00 | 0.00 | 83 | 1018.0 |
| 20260831040314 | 63 | 80 | 3.0 | 0.0 | 0.00 | 0.00 | 0.00 | 83 | 1018.0 |
| 20260831034814 | 61 | 40 | 2.0 | 0.0 | 0.00 | 0.00 | 0.00 | 88 | 1018.0 |
| 20260831033314 | 61 | 40 | 2.0 | 0.0 | 0.00 | 0.00 | 0.00 | 88 | 1018.0 |
| 20260831031814 | 63 | 20 | 1.0 | 0.0 | 0.00 | 0.00 | 0.00 | 83 | 1018.0 |
| 20260831030315 | 63 | 20 | 1.0 | 0.0 | 0.00 | 0.00 | 0.00 | 83 | 1018.0 |
| 20260831024814 | 63 | 60 | 3.0 | 0.0 | 0.00 | 0.00 | 0.00 | 83 | 1018.0 |
| 20260831023322 | 63 | 60 | 3.0 | 0.0 | 0.00 | 0.00 | 0.00 | 83 | 1018.0 |
| 20260831021814 | 63 | 0 | 0.0 | 0.0 | 0.00 | 0.00 | 0.00 | 83 | 1018.0 |
| 20260831020316 | 63 | 0 | 0.0 | 0.0 | 0.00 | 0.00 | 0.00 | 83 | 1018.0 |
| 20260831014814 | 63 | 1.0 | 0.0 | 0.00 | 0.00 | 0.00 | 83 | 1018.0 | |
| 20260831013313 | 63 | 1.0 | 0.0 | 0.00 | 0.00 | 0.00 | 83 | 1018.0 | |
| 20260831011815 | 66 | 0 | 0.0 | 0.0 | 0.00 | 0.00 | 0.00 | 73 | 1018.0 |
| 20260831010314 | 66 | 0 | 0.0 | 0.0 | 0.00 | 0.00 | 0.00 | 73 | 1018.0 |
| 20260831004814 | 68 | 10 | 5.0 | 0.0 | 0.00 | 0.00 | 0.00 | 69 | 1018.0 |
| 20260831003314 | 68 | 10 | 5.0 | 0.0 | 0.00 | 0.00 | 0.00 | 69 | 1018.0 |
| 20260831001814 | 66 | 50 | 5.0 | 0.0 | 0.00 | 0.00 | 0.00 | 73 | 1018.0 |
| 20260831000314 | 66 | 50 | 5.0 | 0.0 | 0.00 | 0.00 | 0.00 | 73 | 1018.0 |
| 20260830234814 | 68 | 80 | 5.0 | 0.0 | 0.00 | 0.00 | 0.00 | 69 | 1018.0 |